KA8OAD-1 Weather Reports


Display with metric or nautical units.
time (UTC)temp
F
wind
direction
speed
MPH
gust
MPH
rain 1hr
in
rain 24hr
in
rain mn
in
humidity
%
barometer
mb
20260906035504 62 0 0.0 0.0 0.00 0.03 0.03 86 1014.5
20260906035004 62 0 0.0 0.0 0.00 0.03 0.03 86 1014.5
20260906034504 62 0 0.0 0.0 0.00 0.03 0.03 86 1014.5
20260906034004 63 0 0.0 0.0 0.00 0.03 0.03 86 1014.5
20260906033503 63 0 0.0 0.0 0.00 0.03 0.03 85 1014.5
20260906033005 63 0 0.0 0.0 0.00 0.03 0.03 85 1014.5
20260906032504 63 0 0.0 0.0 0.00 0.03 0.03 85 1014.4
20260906032004 63 0 0.0 0.0 0.00 0.03 0.03 85 1014.5
20260906031503 63 0 0.0 0.0 0.00 0.03 0.03 85 1014.6
20260906031004 63 0 0.0 0.0 0.00 0.03 0.03 84 1014.6
20260906030504 64 0 0.0 0.0 0.00 0.03 0.03 84 1014.5
20260906030004 64 0 0.0 0.0 0.00 0.03 0.03 84 1014.5
20260906025503 64 0 0.0 0.0 0.00 0.03 0.03 84 1014.5
20260906024503 64 0 0.0 0.0 0.00 0.03 0.03 83 1014.3
20260906024004 64 0 0.0 0.0 0.00 0.03 0.03 83 1014.2
20260906023504 65 0 0.0 0.0 0.00 0.03 0.03 83 1014.2
20260906023004 65 0 0.0 0.0 0.00 0.03 0.03 83 1014.1
20260906022503 65 0 0.0 0.0 0.00 0.03 0.03 83 1014.1
20260906022004 65 0 0.0 0.0 0.00 0.03 0.03 82 1014.1
20260906021004 66 0 0.0 0.0 0.00 0.03 0.03 82 1014.1
20260906020504 66 0 0.0 0.0 0.00 0.03 0.03 81 1014.1
20260906020004 66 0 0.0 0.0 0.00 0.03 0.03 80 1014.0
20260906015504 66 0 0.0 0.0 0.00 0.03 0.03 80 1014.0
20260906015004 66 0 0.0 0.0 0.00 0.03 0.03 80 1014.0
20260906014504 67 0 0.0 0.0 0.00 0.03 0.03 80 1014.0
20260906014004 67 0 0.0 0.0 0.00 0.03 0.03 79 1013.9
20260906013503 67 0 0.0 0.0 0.00 0.03 0.03 79 1013.8
20260906012504 68 0 0.0 0.0 0.00 0.03 0.03 78 1013.9
20260906012004 68 0 0.0 0.0 0.00 0.03 0.03 78 1013.9
20260906011004 68 0 0.0 0.0 0.00 0.03 0.03 77 1013.9
20260906010504 69 0 0.0 0.0 0.00 0.03 0.03 76 1013.9
20260906010004 69 0 0.0 0.0 0.00 0.03 0.03 76 1013.8
20260906005504 69 0 0.0 0.0 0.00 0.03 0.03 75 1013.7
20260906005005 69 0 0.0 0.0 0.00 0.03 0.03 75 1013.8
20260906004503 70 0 0.0 0.0 0.00 0.03 0.03 74 1013.9
20260906003504 70 0 0.0 0.0 0.00 0.03 0.03 74 1013.8
20260906003004 70 0 0.0 0.0 0.00 0.03 0.03 74 1013.7
20260906002504 71 0 0.0 0.0 0.00 0.03 0.03 73 1013.7
20260906001503 71 319 0.0 2.0 0.00 0.03 0.03 73 1013.6
20260906000504 72 0 0.0 0.0 0.00 0.03 0.03 73 1013.4
20260905235503 72 319 0.0 2.0 0.00 0.03 0.03 72 1013.3
20260905235005 72 319 0.0 2.0 0.00 0.03 0.03 72 1013.4
20260905234503 73 319 0.0 2.0 0.00 0.03 0.03 72 1013.2
20260905233504 73 349 1.0 3.0 0.00 0.03 0.03 71 1013.0
20260905232504 74 348 1.0 3.0 0.00 0.03 0.03 72 1013.1
20260905231504 74 351 1.0 3.0 0.00 0.03 0.03 71 1013.0
20260905230504 75 341 1.0 4.0 0.00 0.03 0.03 72 1012.8
20260905230004 75 339 1.0 3.0 0.00 0.03 0.03 71 1012.7
20260905225504 75 339 1.0 3.0 0.00 0.03 0.03 72 1012.8
20260905225004 75 9 1.0 3.0 0.00 0.03 0.03 72 1012.7
20260905224504 75 16 1.0 3.0 0.00 0.03 0.03 73 1012.6
20260905224004 76 42 1.0 3.0 0.00 0.03 0.03 73 1012.6
20260905223004 76 44 2.0 7.0 0.00 0.03 0.03 72 1012.4
20260905222504 76 5 2.0 7.0 0.00 0.03 0.03 73 1012.4
20260905221503 76 327 2.0 5.0 0.00 0.03 0.03 73 1012.3
20260905221005 76 307 1.0 3.0 0.00 0.03 0.03 74 1012.4
20260905220503 76 7 1.0 3.0 0.00 0.03 0.03 74 1012.4
20260905220005 77 54 1.0 3.0 0.00 0.03 0.03 75 1012.3
20260905215503 77 318 1.0 4.0 0.00 0.03 0.03 77 1012.3
20260905215004 77 315 1.0 4.0 0.00 0.03 0.03 76 1012.1
20260905214504 77 320 1.0 3.0 0.00 0.03 0.03 76 1012.2
20260905214005 77 319 2.0 4.0 0.00 0.03 0.03 76 1012.1
20260905213503 77 319 1.0 4.0 0.00 0.03 0.03 76 1012.1
20260905213005 77 320 1.0 3.0 0.00 0.03 0.03 77 1012.1
20260905212503 77 321 1.0 6.0 0.00 0.03 0.03 77 1012.1
20260905212005 77 322 1.0 6.0 0.00 0.03 0.03 78 1012.1
20260905211503 77 310 1.0 6.0 0.00 0.03 0.03 78 1012.0
20260905211005 77 290 1.0 3.0 0.00 0.03 0.03 78 1012.1
20260905210503 77 285 1.0 4.0 0.00 0.03 0.03 78 1012.0
20260905210004 77 249 1.0 4.0 0.00 0.03 0.03 78 1011.9
20260905205504 77 167 1.0 4.0 0.00 0.03 0.03 78 1012.0
20260905205004 77 282 1.0 3.0 0.00 0.03 0.03 77 1012.1
20260905204504 77 323 1.0 6.0 0.00 0.03 0.03 77 1012.1
20260905203504 77 331 1.0 4.0 0.00 0.03 0.03 78 1012.3
20260905203004 77 332 1.0 4.0 0.00 0.03 0.03 78 1012.4
20260905202504 77 327 2.0 4.0 0.00 0.03 0.03 78 1012.3
20260905202004 77 2 1.0 4.0 0.00 0.03 0.03 78 1012.5
20260905201503 77 77 0.0 3.0 0.00 0.03 0.03 79 1012.4
20260905201005 76 79 1.0 3.0 0.00 0.03 0.03 78 1012.4
20260905200503 76 46 1.0 5.0 0.00 0.03 0.03 77 1012.5
20260905195004 77 84 1.0 4.0 0.00 0.03 0.03 79 1012.4
20260905194504 77 49 1.0 4.0 0.00 0.03 0.03 79 1012.3
20260905194007 76 23 1.0 2.0 0.00 0.03 0.03 81 1012.4
20260905193504 76 37 1.0 2.0 0.00 0.03 0.03 81 1012.4
20260905193005 76 60 1.0 2.0 0.00 0.03 0.03 81 1012.4
20260905192504 76 47 1.0 4.0 0.00 0.03 0.03 81 1012.5
20260905191504 76 22 0.0 3.0 0.00 0.03 0.03 82 1012.5
20260905190503 76 37 1.0 3.0 0.00 0.03 0.03 83 1012.6
20260905185503 76 0 0.0 0.0 0.00 0.03 0.03 84 1012.5
20260905185005 76 317 0.0 2.0 0.00 0.03 0.03 84 1012.6
20260905184503 76 315 1.0 4.0 0.00 0.03 0.03 84 1012.6
20260905184005 76 312 1.0 6.0 0.00 0.03 0.03 85 1012.6
20260905183503 76 324 1.0 6.0 0.00 0.03 0.03 85 1012.7
20260905183005 76 335 1.0 4.0 0.00 0.03 0.03 85 1012.6
20260905182503 76 338 1.0 3.0 0.00 0.03 0.03 86 1012.7
20260905182005 76 334 1.0 4.0 0.00 0.03 0.03 86 1012.7
20260905181503 76 329 0.0 4.0 0.00 0.03 0.03 86 1012.7
20260905180504 76 0 0.0 0.0 0.00 0.03 0.03 88 1012.8
20260905180004 76 0 0.0 0.0 0.00 0.03 0.03 88 1012.8
20260905175503 75 0 0.0 0.0 0.00 0.03 0.03 88 1012.9
20260905175005 75 0 0.0 0.0 0.00 0.03 0.03 88 1012.8
20260905174504 75 0 0.0 0.0 0.00 0.03 0.03 88 1012.8
20260905174004 75 0 0.0 0.0 0.00 0.03 0.03 88 1012.8
20260905173504 75 0 0.0 0.0 0.00 0.03 0.03 88 1012.9
20260905173004 75 0 0.0 0.0 0.01 0.03 0.03 88 1012.9
20260905172004 75 284 0.0 2.0 0.01 0.03 0.03 88 1013.0
20260905171504 75 284 0.0 2.0 0.03 0.03 0.03 88 1013.1
20260905171005 75 284 0.0 2.0 0.03 0.03 0.03 88 1013.2
20260905170004 75 0 0.0 0.0 0.03 0.04 0.03 88 1013.1
20260905165504 75 0 0.0 0.0 0.03 0.04 0.03 88 1013.2
20260905165004 75 0 0.0 0.0 0.03 0.04 0.03 88 1013.3
20260905164004 75 0 0.0 0.0 0.03 0.04 0.03 88 1013.3
20260905163503 75 0 0.0 0.0 0.03 0.04 0.03 88 1013.3
20260905163005 75 0 0.0 0.0 0.02 0.03 0.02 87 1013.4
20260905162503 75 0 0.0 0.0 0.02 0.03 0.02 87 1013.4
20260905162005 75 0 0.0 0.0 0.02 0.03 0.02 87 1013.4
20260905161504 75 0 0.0 0.0 0.00 0.01 0.00 87 1013.5
20260905161004 75 0 0.0 0.0 0.00 0.01 0.00 88 1013.4
20260905160504 75 0 0.0 0.0 0.00 0.01 0.00 88 1013.3
20260905160005 75 284 0.0 2.0 0.00 0.01 0.00 88 1013.3
20260905155504 74 283 1.0 3.0 0.00 0.01 0.00 89 1013.4
20260905155004 74 283 0.0 3.0 0.00 0.01 0.00 90 1013.4
20260905154504 74 279 0.0 1.0 0.00 0.01 0.00 90 1013.4
20260905154005 73 278 1.0 2.0 0.00 0.01 0.00 90 1013.3
20260905152503 73 0 0.0 0.0 0.00 0.01 0.00 92 1013.2
20260905152004 72 0 0.0 0.0 0.00 0.01 0.00 92 1013.3
20260905151503 72 0 0.0 0.0 0.00 0.01 0.00 92 1013.3
20260905151005 72 0 0.0 0.0 0.00 0.01 0.00 93 1013.2
20260905150004 72 0 0.0 0.0 0.00 0.01 0.00 93 1013.1
20260905145503 72 0 0.0 0.0 0.00 0.01 0.00 93 1013.0
20260905144504 71 0 0.0 0.0 0.00 0.01 0.00 93 1013.0
20260905144004 71 0 0.0 0.0 0.00 0.01 0.00 93 1013.0
20260905143504 71 0 0.0 0.0 0.00 0.01 0.00 94 1012.9
20260905143004 71 0 0.0 0.0 0.00 0.02 0.00 94 1012.9
20260905142504 71 0 0.0 0.0 0.00 0.03 0.00 94 1013.0
20260905142004 71 0 0.0 0.0 0.00 0.04 0.00 94 1013.0
20260905141004 70 0 0.0 0.0 0.00 0.05 0.00 94 1012.9
20260905140005 70 0 0.0 0.0 0.00 0.05 0.00 94 1013.1
20260905135503 70 0 0.0 0.0 0.00 0.05 0.00 94 1013.1
20260905135005 70 0 0.0 0.0 0.00 0.05 0.00 94 1013.1
20260905134503 70 0 0.0 0.0 0.00 0.05 0.00 94 1013.1
20260905133004 70 0 0.0 0.0 0.00 0.05 0.00 94 1012.9
20260905132503 70 0 0.0 0.0 0.00 0.05 0.00 94 1013.0
20260905131503 69 0 0.0 0.0 0.00 0.05 0.00 94 1013.2
20260905131004 69 0 0.0 0.0 0.00 0.05 0.00 94 1013.2
20260905130504 69 0 0.0 0.0 0.00 0.05 0.00 93 1013.1
20260905130004 69 0 0.0 0.0 0.00 0.05 0.00 93 1013.1
20260905124503 69 0 0.0 0.0 0.00 0.05 0.00 93 1013.2
20260905123004 69 0 0.0 0.0 0.00 0.05 0.00 93 1013.2
20260905122504 69 0 0.0 0.0 0.00 0.05 0.00 93 1013.2
20260905122004 69 0 0.0 0.0 0.00 0.05 0.00 93 1013.2
20260905121503 69 0 0.0 0.0 0.00 0.05 0.00 93 1013.1
20260905121005 69 0 0.0 0.0 0.00 0.05 0.00 93 1013.0
20260905120503 69 0 0.0 0.0 0.00 0.05 0.00 93 1012.9
20260905115504 69 0 0.0 0.0 0.00 0.05 0.00 93 1012.8
20260905114504 69 0 0.0 0.0 0.00 0.05 0.00 93 1012.6
20260905114004 69 0 0.0 0.0 0.00 0.05 0.00 93 1012.7
20260905113504 68 0 0.0 0.0 0.00 0.05 0.00 93 1012.6
20260905113004 68 0 0.0 0.0 0.00 0.05 0.00 93 1012.7
20260905112504 68 0 0.0 0.0 0.00 0.05 0.00 93 1012.7
20260905112005 68 0 0.0 0.0 0.00 0.05 0.00 93 1012.6
20260905111503 68 0 0.0 0.0 0.00 0.05 0.00 93 1012.6
20260905110504 68 0 0.0 0.0 0.00 0.05 0.00 93 1012.7
20260905110004 68 0 0.0 0.0 0.00 0.05 0.00 93 1012.6
20260905105503 68 0 0.0 0.0 0.00 0.05 0.00 93 1012.8
20260905105005 68 0 0.0 0.0 0.00 0.05 0.00 93 1013.0
20260905104504 68 0 0.0 0.0 0.00 0.05 0.00 93 1013.2
20260905104004 68 0 0.0 0.0 0.00 0.05 0.00 93 1013.4
20260905103504 68 0 0.0 0.0 0.00 0.05 0.00 93 1013.4
20260905103004 68 0 0.0 0.0 0.00 0.05 0.00 93 1013.5
20260905102503 68 0 0.0 0.0 0.00 0.05 0.00 93 1013.5
20260905101504 68 0 0.0 0.0 0.00 0.05 0.00 93 1013.7
20260905101004 68 0 0.0 0.0 0.00 0.05 0.00 93 1013.8
20260905100504 68 0 0.0 0.0 0.00 0.05 0.00 92 1013.7
20260905100005 68 0 0.0 0.0 0.00 0.05 0.00 92 1013.6
20260905095503 68 0 0.0 0.0 0.00 0.05 0.00 92 1013.4
20260905094504 68 0 0.0 0.0 0.00 0.05 0.00 92 1013.1
20260905094004 68 0 0.0 0.0 0.00 0.05 0.00 92 1013.0
20260905093504 68 0 0.0 0.0 0.00 0.05 0.00 92 1012.7
20260905092503 68 0 0.0 0.0 0.00 0.05 0.00 92 1012.5
20260905092005 68 0 0.0 0.0 0.00 0.05 0.00 92 1012.4
20260905091004 68 0 0.0 0.0 0.00 0.05 0.00 92 1012.1
20260905090504 68 0 0.0 0.0 0.00 0.05 0.00 92 1012.1
20260905085504 68 0 0.0 0.0 0.00 0.05 0.00 92 1012.4
20260905085004 68 0 0.0 0.0 0.00 0.05 0.00 92 1012.5
20260905084503 68 0 0.0 0.0 0.00 0.05 0.00 92 1012.4
20260905084005 68 0 0.0 0.0 0.00 0.05 0.00 92 1012.4
20260905083503 68 0 0.0 0.0 0.00 0.05 0.00 92 1012.2
20260905083004 68 0 0.0 0.0 0.00 0.05 0.00 92 1012.0
20260905082503 68 0 0.0 0.0 0.00 0.05 0.00 92 1011.7
20260905082005 68 0 0.0 0.0 0.00 0.05 0.00 92 1011.9
20260905081503 68 0 0.0 0.0 0.00 0.05 0.00 92 1011.8
20260905081005 68 0 0.0 0.0 0.00 0.05 0.00 92 1011.7
20260905080504 68 0 0.0 0.0 0.00 0.05 0.00 92 1011.8
20260905075503 68 0 0.0 0.0 0.00 0.05 0.00 92 1012.2
20260905075005 68 0 0.0 0.0 0.00 0.05 0.00 92 1012.0
20260905074503 69 0 0.0 0.0 0.00 0.05 0.00 92 1012.0
20260905074005 69 0 0.0 0.0 0.00 0.05 0.00 92 1012.1
20260905073504 69 0 0.0 0.0 0.00 0.05 0.00 92 1012.0
20260905072504 69 0 0.0 0.0 0.00 0.05 0.00 92 1012.2
20260905072005 69 0 0.0 0.0 0.00 0.05 0.00 92 1012.2
20260905071503 69 0 0.0 0.0 0.00 0.05 0.00 92 1012.2
20260905071004 69 0 0.0 0.0 0.00 0.05 0.00 92 1012.3
20260905070504 69 0 0.0 0.0 0.00 0.05 0.00 92 1012.3
20260905065004 70 0 0.0 0.0 0.00 0.05 0.00 92 1012.3
20260905064503 70 0 0.0 0.0 0.00 0.05 0.00 92 1012.3
20260905063504 70 0 0.0 0.0 0.00 0.05 0.00 92 1012.4
20260905063004 70 0 0.0 0.0 0.00 0.05 0.00 92 1012.6
20260905062504 70 0 0.0 0.0 0.00 0.05 0.00 92 1012.6
20260905061503 70 0 0.0 0.0 0.00 0.05 0.00 92 1012.8
20260905061005 70 0 0.0 0.0 0.00 0.05 0.00 92 1012.8
20260905060503 70 0 0.0 0.0 0.00 0.05 0.00 92 1012.9
20260905055504 70 0 0.0 0.0 0.00 0.05 0.00 92 1013.2
20260905055004 70 0 0.0 0.0 0.00 0.05 0.00 91 1013.2
20260905054504 70 0 0.0 0.0 0.00 0.05 0.00 91 1013.3
20260905054004 70 0 0.0 0.0 0.00 0.05 0.00 91 1013.3
20260905053005 70 0 0.0 0.0 0.00 0.05 0.00 91 1013.5
20260905052503 70 0 0.0 0.0 0.00 0.05 0.00 91 1013.4
20260905052005 70 0 0.0 0.0 0.00 0.05 0.00 91 1013.4
20260905051504 70 0 0.0 0.0 0.00 0.05 0.00 91 1013.4
20260905051004 70 0 0.0 0.0 0.00 0.05 0.00 91 1013.4
20260905050504 70 0 0.0 0.0 0.00 0.05 0.00 91 1013.4
20260905045503 70 0 0.0 0.0 0.00 0.05 0.00 91 1013.6
20260905044504 70 0 0.0 0.0 0.00 0.05 0.00 91 1013.4
20260905044004 70 0 0.0 0.0 0.00 0.05 0.00 91 1013.5
20260905043504 70 0 0.0 0.0 0.00 0.05 0.00 91 1013.6
20260905042503 70 0 0.0 0.0 0.00 0.05 0.00 91 1013.5
20260905042005 70 0 0.0 0.0 0.00 0.05 0.00 91 1013.5
20260905041503 70 0 0.0 0.0 0.00 0.05 0.00 91 1013.6
20260905040504 70 0 0.0 0.0 0.00 0.05 0.00 91 1013.5